Home   Weather   Anchorage   Past weeks

Flag for USA Past Weather in Anchorage, Alaska, USA — Yesterday and Last 2 Weeks

Now
24 °F

Overcast.


Feels Like: 24 °F
Forecast: 24 / 35 °F
Wind: No wind

Location: Lake Hood Seaplane

Current Time: Feb 24, 2017 at 5:48:34 am

Latest Report: Feb 24, 2017 at 4:53 am


Visibility: 10 mi

Pressure: 30.39 "Hg

Humidity: 91%

Dew Point: 22 °F

Location of AnchorageLocation

Past Weather in Anchorage — Graph

°F

Anchorage Temperature Yesterday

Maximum temperature yesterday: 23 °F (at 2:53 pm)
Minimum temperature yesterday: 19 °F (at 4:53 am)
Average temperature yesterday: 21 °F

High & Low Weather Summary for the Past Weeks

 TemperatureHumidityPressure
High43 °F (Feb 14, 2:53 pm)100% (Feb 18, 2:13 am)30.54 "Hg (Feb 18, 2:13 am)
Low-9 °F (Feb 12, 3:53 am)54% (Feb 21, 12:53 am)28.56 "Hg (Feb 14, 8:32 am)
Average19 °F84%29.50 "Hg
* Reported Feb 9 5:00 am — Feb 24 4:41 am, Anchorage, Weather by CustomWeather, © 2017

Note: Actual official high and low records may vary slightly from our data, if they occured in-between our weather recording intervals... More about our weather records

Advertising

Anchorage Weather History for the Previous 24 Hours

Scroll right to see more
 ConditionsComfort  
Time TempWeatherWind HumidityBarometerVisibility
4:41 am
Fri, Feb 24
24 °FOvercast.No wind88%30.39 "Hg9 mi
4:11 am23 °FOvercast.3 mph92%30.40 "Hg10 mi
3:53 am23 °FOvercast.3 mph92%30.40 "Hg10 mi
2:53 am23 °FOvercast.8 mph88%30.40 "Hg10 mi
1:53 am23 °FOvercast.3 mph88%30.41 "Hg10 mi
1:13 am23 °FLow clouds.3 mph88%30.42 "Hg10 mi
12:53 am23 °FOvercast.No wind88%30.42 "Hg10 mi
11:53 pm
Thu, Feb 23
23 °FOvercast.No wind85%30.40 "Hg10 mi
10:53 pm22 °FOvercast.No wind89%30.42 "Hg10 mi
10:26 pm22 °FMostly cloudy.No wind85%30.41 "Hg10 mi
9:53 pm21 °FOvercast.6 mph88%30.42 "Hg10 mi
8:53 pm20 °FPassing clouds.No wind89%30.43 "Hg10 mi
7:53 pm21 °FClear.3 mph88%30.43 "Hg10 mi
6:53 pm21 °FClear.3 mph85%30.43 "Hg10 mi
5:53 pm22 °FSunny.5 mph85%30.44 "Hg10 mi
4:53 pm23 °FSunny.3 mph81%30.45 "Hg10 mi
3:53 pm22 °FSunny.3 mph82%30.47 "Hg10 mi
2:53 pm23 °FOvercast.No wind81%30.48 "Hg10 mi
1:53 pm22 °FOvercast.5 mph85%30.51 "Hg10 mi
12:53 pm22 °FOvercast.5 mph85%30.50 "Hg10 mi
12:05 pm21 °FMore clouds than sun.5 mph85%30.52 "Hg10 mi
11:53 am21 °FMostly cloudy.3 mph85%30.53 "Hg10 mi
11:01 am20 °FMore clouds than sun.5 mph85%30.52 "Hg10 mi
10:53 am20 °FMostly cloudy.8 mph85%30.53 "Hg10 mi
9:53 am20 °FOvercast.6 mph89%30.52 "Hg10 mi
8:53 am19 °FLow clouds.6 mph88%30.52 "Hg10 mi
7:53 am19 °FPartly cloudy.5 mph88%30.53 "Hg10 mi
7:30 am19 °FPassing clouds.6 mph88%30.52 "Hg10 mi
7:21 am19 °FPassing clouds.6 mph88%30.52 "Hg10 mi
6:53 am19 °FClear.No wind88%30.53 "Hg10 mi
5:53 am20 °FOvercast.6 mph85%30.54 "Hg10 mi
Weather by CustomWeather, © 2017

See weather overviewHow to use our weather pages